Location: *
(45.5224°N, 122.7471°W)
Time: 04:43:41
(UTC+00:00)

Cosmos 1378 - Pass Details

Date: 09 April 2020
Orbit: 491 x 503 km, 82.5° (Epoch: 25 May)

Event Time Altitude Azimuth Distance (km) Brightness Sun altitude
Rises 12:37:11 0° 179° (S) 2,572 6.5 -10.5°
Reaches altitude 10° 12:39:18 10° 176° (S) 1,696 5.6 -10.2°
Maximum altitude 12:42:58 61° 96° (E) 573 3.7 -9.6°
Drops below altitude 10° 12:46:40 10° 16° (NNE) 1,718 6.4 -9.0°
Sets 12:48:49 0° 13° (NNE) 2,609 7.3 -8.6°
